New York, NY

7:34 PM EDT on September 25, 2016 (GMT -0400)
Central Park

Weather History for KNYC - October, 2012

Change the Weather History Date:

Tuesday, October 9, 2012

  Actual Average Record
Temperature  
Mean Temperature 54 °F 59 °F  
Max Temperature 58 °F 66 °F 86 °F (1916)
Min Temperature 50 °F 52 °F 37 °F (2000)
Degree Days  
Heating Degree Days 11 7  
Month to date heating degree days 45 51  
Since 1 July heating degree days 67 96  
Cooling Degree Days 0 1  
Month to date cooling degree days 15 9  
Year to date cooling degree days 1277 1096  
Growing Degree Days 4 (Base 50)    
Moisture  
Dew Point 50 °F    
Average Humidity 82    
Maximum Humidity 93    
Minimum Humidity 71    
Precipitation  
Precipitation 0.03 in 0.15 in 7.33 in (1903)
Month to date precipitation 0.60 1.29  
Year to date precipitation 29.58 38.81  
Snow  
Snow 0.00 in 0.00 in 0.00 in (2002)
Month to date snowfall 0.0 0.0  
Since 1 July snowfall 0.0 0.0  
Snow Depth 0.00 in    
Sea Level Pressure  
Sea Level Pressure 30.17 in    
Wind  
Wind Speed 7 mph (NE)    
Max Wind Speed 13 mph    
Max Gust Speed 17 mph    
Visibility 8 miles    
Events Rain    
T = Trace of Precipitation, MM = Missing Value Source: NWS Daily Summary

Daily Weather History Graph

Daily Weather History Graph

Search for Another Location

Airport or City:

Trip Planner

Search our weather history database for the weather conditions in past years. The results will help you decide how hot, cold, wet, or windy it might be!

Date:

Astronomy

Oct. 09, 2012 Rise Set
Actual Time 7:01 AM EDT 6:24 PM EDT
Civil Twilight 6:33 AM EDT 6:51 PM EDT
Nautical Twilight 6:02 AM EDT 7:23 PM EDT
Astronomical Twilight 5:30 AM EDT 7:54 PM EDT
Moon 12:33 AM EDT (10/9) 2:51 PM EDT (10/9)
Length of Visible Light 12h 17m
Length of Day
11h 22m
Last Quarter, 37% of the Moon is Illuminated
Oct 9
Last Quarter
Oct 15
New
Oct 21
First Quarter
Oct 29
Full
Nov 6
Last Quarter

Hourly Weather History & Observations

Time (EDT) Temp. Dew Point Humidity Pressure Visibility Wind Dir Wind Speed Gust Speed Precip Events Conditions
12:51 AM 52.0 °F 43.0 °F 71% 30.24 in 10.0 mi NNE 4.6 mph - N/A   Scattered Clouds
1:51 AM 52.0 °F 43.0 °F 71% 30.22 in 10.0 mi ENE 3.5 mph - N/A   Mostly Cloudy
2:51 AM 51.1 °F 44.1 °F 77% 30.21 in 10.0 mi ENE 5.8 mph - N/A   Overcast
3:51 AM 51.1 °F 42.1 °F 71% 30.20 in 10.0 mi Variable 5.8 mph - N/A   Overcast
4:51 AM 52.0 °F 43.0 °F 71% 30.21 in 10.0 mi NE 8.1 mph - N/A   Overcast
5:51 AM 52.0 °F 44.1 °F 74% 30.20 in 10.0 mi Variable 3.5 mph - N/A   Overcast
6:17 AM 52.0 °F 44.1 °F 74% 30.22 in 10.0 mi Variable 5.8 mph - N/A   Overcast
6:51 AM 52.0 °F 44.1 °F 74% 30.20 in 10.0 mi Variable 4.6 mph - 0.00 in Rain Light Rain
7:32 AM 51.1 °F 46.9 °F 86% 30.22 in 6.0 mi NE 6.9 mph - 0.01 in Rain Light Rain
7:39 AM 50.0 °F 46.9 °F 89% 30.22 in 5.0 mi Variable 4.6 mph - 0.01 in Rain Light Rain
7:51 AM 50.0 °F 48.0 °F 93% 30.20 in 6.0 mi NE 5.8 mph - 0.02 in Rain Light Rain
8:46 AM 51.8 °F 48.2 °F 88% 30.23 in 9.0 mi Variable 5.8 mph - 0.01 in   Overcast
8:51 AM 51.1 °F 48.9 °F 92% 30.21 in 8.0 mi Variable 6.9 mph - 0.01 in   Overcast
9:51 AM 53.1 °F 50.0 °F 89% 30.20 in 10.0 mi ENE 9.2 mph - 0.00 in   Overcast
10:51 AM 54.0 °F 50.0 °F 86% 30.20 in 10.0 mi NE 9.2 mph - N/A   Overcast
11:51 AM 55.0 °F 50.0 °F 83% 30.19 in 10.0 mi ENE 6.9 mph - N/A   Overcast
12:51 PM 55.9 °F 52.0 °F 87% 30.17 in 9.0 mi NE 6.9 mph - N/A   Overcast
1:51 PM 57.0 °F 52.0 °F 83% 30.14 in 9.0 mi East 10.4 mph 16.1 mph N/A   Overcast
2:51 PM 55.9 °F 53.1 °F 90% 30.14 in 5.0 mi ENE 6.9 mph - N/A   Overcast
3:51 PM 55.9 °F 53.1 °F 90% 30.13 in 8.0 mi Variable 5.8 mph - N/A   Overcast
4:05 PM 57.0 °F 52.0 °F 83% 30.15 in 10.0 mi ENE 6.9 mph - N/A   Overcast
4:51 PM 57.0 °F 52.0 °F 83% 30.12 in 10.0 mi ENE 8.1 mph - N/A   Overcast
5:51 PM 57.0 °F 52.0 °F 83% 30.12 in 10.0 mi Variable 6.9 mph - N/A   Overcast
6:49 PM 55.4 °F 53.6 °F 94% 30.14 in 5.0 mi NE 5.8 mph - N/A   Overcast
6:51 PM 55.0 °F 53.1 °F 93% 30.12 in 6.0 mi ENE 5.8 mph - N/A   Overcast
7:15 PM 55.0 °F 53.1 °F 93% 30.14 in 3.0 mi Variable 6.9 mph - N/A   Overcast
7:49 PM 55.4 °F 53.6 °F 94% 30.14 in 6.0 mi Variable 3.5 mph - N/A   Overcast
7:51 PM 55.0 °F 53.1 °F 93% 30.12 in 7.0 mi NE 6.9 mph - N/A   Overcast
8:15 PM 55.0 °F 53.1 °F 93% 30.13 in 10.0 mi Variable 3.5 mph - N/A   Overcast
8:51 PM 55.0 °F 53.1 °F 93% 30.11 in 10.0 mi ENE 6.9 mph - N/A   Overcast
9:51 PM 55.9 °F 53.1 °F 90% 30.10 in 10.0 mi Variable 3.5 mph - N/A   Overcast
10:51 PM 57.0 °F 54.0 °F 89% 30.10 in 10.0 mi Variable 6.9 mph - N/A   Overcast
11:51 PM 57.0 °F 54.0 °F 89% 30.08 in 10.0 mi NE 5.8 mph - N/A   Overcast